ECHOSTAR 19

Last updated on Sun Jun 21 2026 00:03:07 GMT+0000 (Coordinated Universal Time)

1 41893U 16079A 26170.94500515 -.00000145 00000+0 00000+0 0 9992 2 41893 0.0182 19.3424 0000925 75.8942 56.0290 1.00277305 34736
UTC large
Height (km)
Speed (km/s)
/
Latitude / Longitude
Inclination (degrees)
Orbital Period (minutes)
Azimuth
Elevation
Range (km)
Doppler Factor

Next 0 passes for location: London (51.5072 / 0.1276)

No passes found over London.
ECHOSTAR 19